Time,TemperatureF,DewpointF,PressureIn,WindDirection,WindDirectionDegrees,WindSpeedMPH,WindSpeedGustMPH,Humidity,HourlyPrecipIn,Conditions,Clouds,dailyrainin,SoftwareType,DateUTC
2013-11-12 00:12:00,28.3,21.0,30.40,WNW,293,3.0,7.0,75,0.00,,,0.00,weatherlink.com 1.10,2013-11-12 05:12:00,
2013-11-12 00:27:00,28.0,21.0,30.41,NW,315,3.0,4.0,76,0.00,,,0.00,weatherlink.com 1.10,2013-11-12 05:27:00,
2013-11-12 00:43:00,28.0,21.0,30.41,NNE,25,6.0,7.0,75,0.00,,,0.00,weatherlink.com 1.10,2013-11-12 05:43:00,
2013-11-12 00:58:00,28.1,21.0,30.42,NW,312,0.0,5.0,74,0.00,,,0.00,weatherlink.com 1.10,2013-11-12 05:58:00,
2013-11-12 01:13:00,27.8,20.0,30.42,North,352,2.0,7.0,73,0.00,,,0.00,weatherlink.com 1.10,2013-11-12 06:13:00,
2013-11-12 01:28:00,27.8,21.0,30.43,NW,307,0.0,6.0,74,0.00,,,0.00,weatherlink.com 1.10,2013-11-12 06:28:00,
2013-11-12 01:43:00,27.6,20.0,30.43,NW,307,5.0,5.0,74,0.00,,,0.00,weatherlink.com 1.10,2013-11-12 06:43:00,
2013-11-12 01:58:00,26.8,20.0,30.43,NW,309,1.0,2.0,75,0.00,,,0.00,weatherlink.com 1.10,2013-11-12 06:58:00,
2013-11-12 02:13:00,26.5,20.0,30.43,North,8,2.0,4.0,76,0.00,,,0.00,weatherlink.com 1.10,2013-11-12 07:13:00,
2013-11-12 02:28:00,26.4,20.0,30.44,WNW,299,2.0,4.0,77,0.00,,,0.00,weatherlink.com 1.10,2013-11-12 07:28:00,
2013-11-12 02:43:00,26.3,20.0,30.45,NNE,19,1.0,5.0,78,0.00,,,0.00,weatherlink.com 1.10,2013-11-12 07:43:00,
2013-11-12 02:58:00,26.4,20.0,30.45,NNW,330,3.0,7.0,77,0.00,,,0.00,weatherlink.com 1.10,2013-11-12 07:58:00,
2013-11-12 03:13:00,26.3,20.0,30.45,NW,317,1.0,4.0,77,0.00,,,0.00,weatherlink.com 1.10,2013-11-12 08:13:00,
2013-11-12 03:28:00,25.9,20.0,30.46,WNW,299,0.0,4.0,78,0.00,,,0.00,weatherlink.com 1.10,2013-11-12 08:28:00,
2013-11-12 03:43:00,25.7,20.0,30.46,NW,316,3.0,5.0,79,0.00,,,0.00,weatherlink.com 1.10,2013-11-12 08:43:00,
2013-11-12 03:58:00,25.5,20.0,30.47,North,4,1.0,4.0,79,0.00,,,0.00,weatherlink.com 1.10,2013-11-12 08:58:00,
2013-11-12 04:13:00,25.3,20.0,30.48,WNW,293,3.0,5.0,80,0.00,,,0.00,weatherlink.com 1.10,2013-11-12 09:13:00,
2013-11-12 04:28:00,25.2,20.0,30.48,NNE,22,0.0,5.0,79,0.00,,,0.00,weatherlink.com 1.10,2013-11-12 09:28:00,
2013-11-12 04:43:00,25.0,20.0,30.49,North,357,1.0,3.0,80,0.00,,,0.00,weatherlink.com 1.10,2013-11-12 09:43:00,
2013-11-12 04:58:00,24.8,19.0,30.50,NW,314,5.0,5.0,80,0.00,,,0.00,weatherlink.com 1.10,2013-11-12 09:58:00,
2013-11-12 05:28:00,24.5,19.0,30.51,NW,315,2.0,3.0,80,0.00,,,0.00,weatherlink.com 1.10,2013-11-12 10:28:00,
2013-11-12 05:43:00,24.3,19.0,30.51,NW,308,1.0,2.0,80,0.00,,,0.00,weatherlink.com 1.10,2013-11-12 10:43:00,
2013-11-12 05:58:00,24.0,19.0,30.52,NW,312,0.0,3.0,81,0.00,,,0.00,weatherlink.com 1.10,2013-11-12 10:58:00,
2013-11-12 06:14:00,23.3,19.0,30.53,NW,307,0.0,1.0,82,0.00,,,0.00,weatherlink.com 1.10,2013-11-12 11:14:00,
2013-11-12 06:29:00,22.7,18.0,30.54,West,281,0.0,1.0,83,0.00,,,0.00,weatherlink.com 1.10,2013-11-12 11:29:00,
2013-11-12 06:44:00,22.1,18.0,30.54,West,276,0.0,1.0,84,0.00,,,0.00,weatherlink.com 1.10,2013-11-12 11:44:00,
2013-11-12 06:59:00,21.8,18.0,30.55,WNW,290,0.0,1.0,85,0.00,,,0.00,weatherlink.com 1.10,2013-11-12 11:59:00,
2013-11-12 07:14:00,21.6,18.0,30.56,West,269,0.0,2.0,86,0.00,,,0.00,weatherlink.com 1.10,2013-11-12 12:14:00,
2013-11-12 07:29:00,21.6,18.0,30.57,West,267,1.0,1.0,86,0.00,,,0.00,weatherlink.com 1.10,2013-11-12 12:29:00,
2013-11-12 07:44:00,21.6,18.0,30.57,West,280,0.0,1.0,87,0.00,,,0.00,weatherlink.com 1.10,2013-11-12 12:44:00,
2013-11-12 07:59:00,21.9,19.0,30.58,WNW,300,1.0,1.0,88,0.00,,,0.00,weatherlink.com 1.10,2013-11-12 12:59:00,
2013-11-12 08:14:00,22.6,19.0,30.58,WNW,285,1.0,2.0,87,0.00,,,0.00,weatherlink.com 1.10,2013-11-12 13:14:00,
2013-11-12 08:29:00,23.6,20.0,30.59,WNW,287,4.0,4.0,86,0.00,,,0.00,weatherlink.com 1.10,2013-11-12 13:29:00,
2013-11-12 08:44:00,24.7,21.0,30.60,West,270,1.0,5.0,85,0.00,,,0.00,weatherlink.com 1.10,2013-11-12 13:44:00,
2013-11-12 08:59:00,25.8,21.0,30.60,NW,311,2.0,5.0,82,0.00,,,0.00,weatherlink.com 1.10,2013-11-12 13:59:00,
2013-11-12 09:29:00,27.2,22.0,30.61,NNW,333,0.0,8.0,80,0.00,,,0.00,weatherlink.com 1.10,2013-11-12 14:29:00,
2013-11-12 09:44:00,28.3,22.0,30.61,NW,314,1.0,7.0,77,0.00,,,0.00,weatherlink.com 1.10,2013-11-12 14:44:00,
2013-11-12 09:59:00,29.0,22.0,30.62,North,356,1.0,10.0,75,0.00,,,0.00,weatherlink.com 1.10,2013-11-12 14:59:00,
2013-11-12 10:14:00,29.9,23.0,30.62,NW,314,6.0,11.0,75,0.00,,,0.00,weatherlink.com 1.10,2013-11-12 15:14:00,
2013-11-12 10:29:00,30.6,23.0,30.62,NE,44,4.0,10.0,74,0.00,,,0.00,weatherlink.com 1.10,2013-11-12 15:29:00,
2013-11-12 10:44:00,31.2,23.0,30.63,NNW,337,2.0,9.0,73,0.00,,,0.00,weatherlink.com 1.10,2013-11-12 15:44:00,
2013-11-12 10:59:00,31.0,23.0,30.63,North,350,2.0,7.0,73,0.00,,,0.00,weatherlink.com 1.10,2013-11-12 15:59:00,
2013-11-12 11:14:00,31.6,24.0,30.63,NNE,26,4.0,7.0,72,0.00,,,0.00,weatherlink.com 1.10,2013-11-12 16:14:00,
2013-11-12 11:29:00,31.9,23.0,30.62,North,352,5.0,7.0,69,0.00,,,0.00,weatherlink.com 1.10,2013-11-12 16:29:00,
2013-11-12 11:44:00,32.5,23.0,30.63,NW,307,8.0,9.0,69,0.00,,,0.00,weatherlink.com 1.10,2013-11-12 16:44:00,
2013-11-12 11:59:00,32.5,23.0,30.63,NNW,342,5.0,8.0,69,0.00,,,0.00,weatherlink.com 1.10,2013-11-12 16:59:00,
2013-11-12 12:14:00,32.7,24.0,30.63,WNW,285,6.0,10.0,70,0.00,,,0.00,weatherlink.com 1.10,2013-11-12 17:14:00,
2013-11-12 12:29:00,32.5,24.0,30.62,West,280,8.0,8.0,70,0.00,,,0.00,weatherlink.com 1.10,2013-11-12 17:29:00,
2013-11-12 12:44:00,32.1,23.0,30.62,WNW,290,5.0,11.0,70,0.00,,,0.00,weatherlink.com 1.10,2013-11-12 17:44:00,
2013-11-12 13:14:00,32.8,24.0,30.61,West,273,7.0,9.0,71,0.00,,,0.00,weatherlink.com 1.10,2013-11-12 18:14:00,
2013-11-12 13:29:00,32.3,24.0,30.61,West,270,2.0,15.0,70,0.00,,,0.00,weatherlink.com 1.10,2013-11-12 18:29:00,
2013-11-12 13:44:00,32.4,23.0,30.61,WNW,285,5.0,13.0,69,0.00,,,0.00,weatherlink.com 1.10,2013-11-12 18:44:00,
2013-11-12 13:59:00,32.8,25.0,30.61,WNW,287,6.0,9.0,72,0.00,,,0.00,weatherlink.com 1.10,2013-11-12 18:59:00,
2013-11-12 14:29:00,31.8,26.0,30.62,WNW,285,5.0,13.0,78,0.00,,,0.00,weatherlink.com 1.10,2013-11-12 19:29:00,
2013-11-12 14:44:00,31.6,26.0,30.62,WNW,295,11.0,11.0,81,0.00,,,0.00,weatherlink.com 1.10,2013-11-12 19:44:00,
2013-11-12 15:00:00,31.1,27.0,30.62,West,279,12.0,13.0,83,0.00,,,0.00,weatherlink.com 1.10,2013-11-12 20:00:00,
2013-11-12 15:15:00,30.8,27.0,30.62,West,281,9.0,13.0,85,0.00,,,0.00,weatherlink.com 1.10,2013-11-12 20:15:00,
2013-11-12 15:30:00,30.9,27.0,30.62,West,267,10.0,13.0,84,0.00,,,0.00,weatherlink.com 1.10,2013-11-12 20:30:00,
2013-11-12 15:45:00,31.3,26.0,30.63,West,276,6.0,12.0,81,0.00,,,0.00,weatherlink.com 1.10,2013-11-12 20:45:00,
2013-11-12 16:00:00,31.1,25.0,30.63,WNW,299,9.0,13.0,79,0.00,,,0.00,weatherlink.com 1.10,2013-11-12 21:00:00,
2013-11-12 16:15:00,30.5,26.0,30.63,West,276,8.0,13.0,83,0.00,,,0.00,weatherlink.com 1.10,2013-11-12 21:15:00,
2013-11-12 16:30:00,30.3,25.0,30.63,WNW,301,4.0,15.0,82,0.00,,,0.00,weatherlink.com 1.10,2013-11-12 21:30:00,
2013-11-12 16:45:00,30.2,25.0,30.63,WNW,290,4.0,10.0,82,0.00,,,0.00,weatherlink.com 1.10,2013-11-12 21:45:00,
2013-11-12 17:00:00,29.9,25.0,30.63,West,281,5.0,13.0,81,0.00,,,0.00,weatherlink.com 1.10,2013-11-12 22:00:00,
2013-11-12 17:15:00,29.6,24.0,30.63,WNW,295,7.0,10.0,81,0.00,,,0.00,weatherlink.com 1.10,2013-11-12 22:15:00,
2013-11-12 17:30:00,29.2,24.0,30.63,West,276,3.0,9.0,82,0.00,,,0.00,weatherlink.com 1.10,2013-11-12 22:30:00,
2013-11-12 17:45:00,29.0,25.0,30.62,West,273,4.0,8.0,83,0.00,,,0.00,weatherlink.com 1.10,2013-11-12 22:45:00,
2013-11-12 18:00:00,28.8,24.0,30.62,WNW,285,3.0,8.0,83,0.00,,,0.00,weatherlink.com 1.10,2013-11-12 23:00:00,
2013-11-12 18:30:00,28.1,22.0,30.63,West,276,10.0,10.0,77,0.00,,,0.00,weatherlink.com 1.10,2013-11-12 23:30:00,
2013-11-12 18:45:00,27.6,21.0,30.63,West,276,4.0,6.0,77,0.00,,,0.00,weatherlink.com 1.10,2013-11-12 23:45:00,
2013-11-12 19:00:00,27.2,21.0,30.64,West,269,5.0,7.0,78,0.00,,,0.00,weatherlink.com 1.10,2013-11-13 00:00:00,
2013-11-12 19:15:00,26.8,21.0,30.64,West,270,3.0,5.0,79,0.00,,,0.00,weatherlink.com 1.10,2013-11-13 00:15:00,
2013-11-12 19:30:00,26.4,20.0,30.64,WNW,285,2.0,5.0,78,0.00,,,0.00,weatherlink.com 1.10,2013-11-13 00:30:00,
2013-11-12 19:45:00,26.1,20.0,30.65,WSW,255,2.0,3.0,79,0.00,,,0.00,weatherlink.com 1.10,2013-11-13 00:45:00,
2013-11-12 20:00:00,25.6,20.0,30.64,SW,224,0.0,2.0,79,0.00,,,0.00,weatherlink.com 1.10,2013-11-13 01:00:00,
2013-11-12 20:15:00,25.1,19.0,30.64,SSW,208,0.0,1.0,79,0.00,,,0.00,weatherlink.com 1.10,2013-11-13 01:15:00,
2013-11-12 20:30:00,24.7,19.0,30.64,SSW,208,1.0,2.0,79,0.00,,,0.00,weatherlink.com 1.10,2013-11-13 01:30:00,
2013-11-12 20:45:00,24.6,19.0,30.64,SSW,201,1.0,2.0,80,0.00,,,0.00,weatherlink.com 1.10,2013-11-13 01:45:00,
2013-11-12 21:00:00,24.5,19.0,30.64,SW,225,1.0,3.0,80,0.00,,,0.00,weatherlink.com 1.10,2013-11-13 02:00:00,
2013-11-12 21:30:00,24.2,19.0,30.64,WSW,238,2.0,3.0,80,0.00,,,0.00,weatherlink.com 1.10,2013-11-13 02:30:00,
2013-11-12 21:45:00,24.1,19.0,30.64,WSW,242,1.0,3.0,79,0.00,,,0.00,weatherlink.com 1.10,2013-11-13 02:45:00,
2013-11-12 22:15:00,24.3,19.0,30.64,WSW,246,5.0,6.0,80,0.00,,,0.00,weatherlink.com 1.10,2013-11-13 03:15:00,
2013-11-12 22:30:00,24.3,19.0,30.64,West,269,3.0,6.0,80,0.00,,,0.00,weatherlink.com 1.10,2013-11-13 03:30:00,
2013-11-12 22:45:00,24.2,19.0,30.63,SW,236,2.0,6.0,80,0.00,,,0.00,weatherlink.com 1.10,2013-11-13 03:45:00,
2013-11-12 23:00:00,24.1,19.0,30.63,WSW,248,2.0,5.0,80,0.00,,,0.00,weatherlink.com 1.10,2013-11-13 04:00:00,
2013-11-12 23:15:00,23.9,19.0,30.63,SW,228,4.0,4.0,80,0.00,,,0.00,weatherlink.com 1.10,2013-11-13 04:15:00,
2013-11-12 23:30:00,23.7,19.0,30.62,WSW,249,3.0,5.0,81,0.00,,,0.00,weatherlink.com 1.10,2013-11-13 04:30:00,
2013-11-12 23:45:00,23.6,19.0,30.62,West,259,3.0,5.0,81,0.00,,,0.00,weatherlink.com 1.10,2013-11-13 04:45:00,